Torna al catalogo

ELEKTRO-L 3

AttivoMeteoGEO
NORAD 44903·PAYLOAD·🇷🇺 Russia

Lanciato Dec 24, 2019 da Baikonur Cosmodrome

Loading…

TLE

AggiornatoSource: Space-Track

Epoca: Sep 14, 2026, 22:40 UTC

1 44903U 19095A   26257.94496751  .00000048  00000-0  00000-0 0  9993
2 44903   0.4824  82.3412 0030935  75.3606 244.7327  0.99822502 24605

Traccia ELEKTRO-L 3 in tempo reale con AllMySat

Download on the App Store